Wind_Speed
11 13 15 17 18 19 20 24 27 29 31 34 35 36 37 37 36 37 38 38 40 41 42 44 45 45 46 46 46 47 47 47 47 46 46 45 43 40 38 38 39 38 38
12 14 15 16 17 19 21 24 28 30 32 34 35 35 35 35 37 37 39 41 43 44 46 46 47 47 47 47 47 46 47 47 48 49 48 47 47 46 44 43 44 44 42
13 17 19 21 23 26 27 29 31 30 29 30 30 32 34 35 38 39 42 44 45 47 47 46 48 47 47 46 45 45 45 45 45 46 48 49 50 50 49 47 47 49 48
15 18 21 24 25 25 26 28 28 29 31 34 36 35 38 39 41 43 46 46 48 49 49 49 49 49 48 47 45 45 46 46 46 47 47 48 49 50 49 49 50 51 51
20 22 25 27 27 28 29 30 30 31 33 35 37 37 40 43 44 46 48 48 49 49 48 49 50 50 50 50 49 49 49 49 49 50 50 51 52 53 53 52 51 52 51
22 24 25 26 26 28 27 29 30 32 34 37 39 42 44 45 45 47 48 48 49 49 49 50 51 52 52 51 50 49 49 49 50 50 50 52 54 56 57 56 56 55 55
27 24 22 21 24 26 28 29 31 34 38 40 42 42 44 45 47 48 49 49 50 50 50 48 46 47 48 49 50 50 50 52 52 52 53 54 54 55 54 52 52 54 54
25 27 27 23 24 27 29 31 35 38 40 42 42 44 45 47 49 50 48 45 45 46 48 51 52 52 52 52 52 52 53 54 55 55 56 56 57 58 58 56 55 54 54
31 33 29 26 29 29 31 33 36 39 39 40 42 44 48 50 47 44 46 48 50 50 51 51 51 51 52 54 54 54 55 55 56 57 58 59 59 60 61 60 59 59 57
28 24 24 27 29 29 31 35 37 38 39 43 47 48 45 43 44 47 50 50 50 51 52 53 53 54 56 57 58 58 58 59 59 60 61 63 64 65 64 63 64 62 61
26 25 27 30 28 31 34 38 39 41 46 50 47 43 43 46 49 50 51 53 54 55 55 56 58 60 61 62 61 61 62 63 63 64 65 65 65 65 65 63 63 64 63
27 29 31 33 32 35 38 40 43 46 50 52 48 47 49 51 52 54 55 57 57 58 59 61 62 64 64 65 65 65 65 66 66 66 66 67 67 66 65 64 63 63 62
30 34 33 33 37 40 41 43 47 49 54 54 49 50 52 54 55 57 57 58 60 61 63 64 66 66 67 67 68 69 69 68 67 67 67 66 65 63 62 61 57 59 61
35 39 37 36 39 38 42 48 50 51 54 49 50 52 54 56 57 57 58 59 61 63 64 65 66 67 67 68 67 66 64 64 63 61 58 54 53 53 52 52 51 49 53
40 41 40 47 41 41 46 49 50 54 50 51 53 56 57 57 58 60 62 64 64 64 64 64 64 64 63 62 61 60 59 57 56 54 54 54 54 53 52 50 48 48 47
41 39 45 48 50 47 48 46 52 51 52 55 57 57 59 61 64 66 64 63 64 64 64 63 62 61 62 63 63 63 62 61 61 59 58 59 57 56 55 53 51 48 50
45 44 43 45 47 49 49 50 50 53 56 59 59 61 64 67 67 64 63 63 63 63 63 64 65 66 65 65 66 67 66 65 64 64 63 63 62 60 58 56 55 50 50
44 41 43 45 46 50 49 51 55 57 59 60 63 67 70 67 65 64 63 63 65 66 67 67 68 69 70 71 71 71 71 69 68 66 65 64 63 62 60 59 57 53 51
46 42 43 48 50 49 53 55 57 58 61 65 69 70 68 68 67 67 67 68 69 69 70 71 73 72 71 68 65 64 63 62 61 60 59 58 58 58 58 57 56 56 53
40 43 45 47 49 52 54 56 59 62 65 70 70 67 66 66 66 68 69 70 71 74 74 72 68 63 58 54 51 51 51 50 50 49 48 48 49 51 53 55 54 54 53
45 44 42 48 50 54 57 60 63 65 69 67 65 64 65 66 69 70 72 74 74 71 65 60 56 53 50 47 44 42 41 41 41 41 40 40 41 41 44 47 49 49 51
42 45 47 49 52 55 58 61 64 69 66 65 66 66 68 69 71 74 73 70 64 58 54 50 46 42 40 39 38 37 36 38 40 40 38 37 36 36 37 39 42 44 45
43 45 47 51 55 58 61 65 69 66 64 64 66 67 69 73 73 71 68 61 54 49 44 42 42 43 43 43 43 42 40 38 36 37 41 38 35 35 35 36 38 39 42
43 46 50 54 57 60 63 68 65 62 61 64 66 70 72 72 69 62 54 49 44 41 43 45 46 45 44 44 44 44 43 43 41 35 34 39 37 34 34 35 36 38 40
45 48 53 57 60 63 68 63 60 60 64 66 70 71 70 65 56 51 45 41 41 43 46 45 46 47 46 45 45 43 43 43 44 43 38 36 40 40 38 36 35 37 39
46 51 55 59 61 65 61 58 59 62 65 68 69 66 60 52 48 43 40 42 44 47 47 47 46 44 42 42 42 42 41 41 40 39 39 37 40 45 46 43 41 40 39
Wind_Direction
335 332 328 323 321 317 313 313 312 309 307 305 305 304 303 302 301 300 298 296 293 290 290 291 289 287 287 286 285 284 283 281 280 278 276 273 270 267 265 266 265 264 262
325 318 315 313 311 309 310 312 312 309 307 306 305 305 304 301 299 296 294 293 292 290 289 288 287 286 285 284 283 281 279 278 276 275 273 271 269 267 264 262 263 263 262
315 318 322 316 315 313 309 309 307 305 305 304 303 301 298 294 292 291 290 290 290 290 289 289 288 286 285 284 283 283 281 279 278 276 275 274 272 269 266 262 261 264 262
329 325 321 316 311 312 309 305 304 305 304 301 300 298 296 295 295 294 293 294 293 292 291 289 288 287 286 285 284 283 283 281 279 277 276 274 273 271 268 266 266 264 266
330 325 317 311 308 307 301 301 304 305 303 303 301 299 297 297 296 295 295 293 292 291 292 292 292 292 290 289 289 288 286 285 283 281 279 277 276 274 273 269 267 265 265
328 323 316 307 305 300 302 307 305 304 302 300 297 297 295 294 295 295 293 294 295 294 294 292 292 291 290 289 289 289 289 287 285 283 282 281 278 275 272 270 269 266 265
325 318 306 302 300 303 306 306 301 299 297 298 297 297 298 299 297 295 294 294 293 294 293 294 295 294 292 291 289 287 287 286 285 283 282 281 279 279 276 273 272 269 265
325 319 312 306 308 306 301 299 300 301 302 301 301 301 301 298 295 296 296 296 296 297 296 296 294 293 292 291 290 288 287 286 284 282 280 279 278 277 275 274 272 270 266
316 312 308 304 302 298 299 302 305 303 302 300 300 299 297 298 298 298 298 298 298 298 296 294 293 293 293 292 290 287 285 284 283 282 281 280 279 277 276 274 273 271 268
306 299 296 299 295 292 296 302 306 306 304 303 302 302 301 298 299 299 299 299 297 296 296 295 293 293 292 291 289 288 287 286 284 282 280 279 278 277 275 274 272 270 268
297 296 299 300 294 293 297 306 310 308 311 311 307 304 304 304 303 303 301 301 300 299 297 295 294 292 291 290 288 287 286 285 283 281 280 279 278 277 274 273 271 270 268
297 295 302 303 305 304 304 306 309 308 315 314 310 308 308 306 304 303 303 302 300 297 295 293 292 291 290 290 289 288 287 285 284 282 280 279 278 276 274 271 269 267 266
295 298 299 298 309 311 309 308 305 307 313 311 307 308 307 305 304 302 301 299 298 296 295 295 294 294 293 292 291 289 288 285 283 280 278 277 275 273 272 269 267 266 264
302 302 298 299 310 307 307 303 305 307 309 307 307 307 306 304 302 301 299 298 297 297 297 297 296 295 294 293 291 289 287 285 283 281 278 275 273 271 270 268 266 262 260
305 307 314 317 306 302 304 302 305 308 307 309 311 309 307 305 303 303 303 303 303 303 302 300 298 296 294 292 291 289 287 284 281 279 276 273 272 271 270 268 265 260 258
317 320 313 308 304 298 301 308 307 307 311 314 312 310 309 309 309 310 310 309 307 305 303 300 298 296 294 292 290 288 286 284 281 278 276 274 271 270 269 268 265 261 256
317 315 307 307 306 308 311 308 311 314 317 316 313 312 312 312 313 312 311 310 307 305 303 301 298 296 294 293 291 288 285 281 277 274 272 270 269 267 266 265 263 260 256
317 312 308 310 312 310 312 317 319 320 317 315 315 315 315 315 314 314 312 310 308 305 303 302 300 298 296 293 290 287 284 281 277 272 269 267 266 264 263 261 261 258 254
322 312 315 312 313 316 320 321 320 319 318 317 317 317 317 317 317 314 312 310 308 306 304 302 301 299 296 294 292 289 287 284 280 276 272 268 264 262 260 258 257 255 252
323 319 315 316 318 321 322 321 320 320 320 319 320 319 319 317 315 313 311 309 308 307 306 305 304 303 301 300 297 295 293 290 287 283 279 274 270 266 261 257 255 251 249
321 319 322 322 324 325 324 323 322 321 321 320 319 319 318 316 315 314 313 312 311 310 309 308 308 305 303 301 299 297 296 294 292 288 284 279 273 266 260 257 253 249 245
322 323 325 326 326 325 324 322 322 323 321 320 321 320 319 317 316 315 315 314 313 313 313 312 312 312 311 309 306 302 297 293 292 289 285 281 275 268 261 255 249 246 241
324 327 327 327 326 324 323 324 324 323 323 324 321 319 318 318 318 317 316 316 317 317 319 319 316 314 311 308 305 302 297 292 287 286 286 279 272 267 259 254 248 243 238
328 328 328 327 325 325 325 324 324 324 323 321 320 320 321 320 319 320 321 322 324 324 321 318 316 315 313 310 307 303 299 295 289 281 279 280 275 265 259 253 248 242 237
328 328 328 326 325 325 325 326 326 324 323 323 322 323 322 322 323 324 326 328 326 324 323 321 319 317 316 314 311 307 303 298 292 286 274 269 271 267 260 252 247 243 237
328 329 326 326 326 327 327 327 325 324 325 324 325 324 325 327 327 328 330 329 327 326 325 324 323 324 322 319 316 313 309 303 296 291 284 274 264 266 262 255 247 242 238
Height
5877 5875 5873 5872 5870 5867 5865 5863 5861 5858 5856 5853 5851 5848 5845 5842 5838 5836 5833 5829 5827 5824 5822 5819 5817 5814 5813 5811 5809 5807 5804 5803 5802 5801 5800 5800 5800 5801 5801 5799 5801 5801 5802
5875 5872 5869 5868 5865 5863 5861 5858 5856 5854 5850 5848 5845 5842 5839 5835 5832 5829 5825 5822 5819 5817 5814 5810 5808 5806 5803 5801 5800 5798 5796 5794 5793 5792 5791 5790 5790 5791 5792 5790 5790 5790 5792
5872 5869 5867 5865 5862 5860 5857 5855 5851 5849 5845 5842 5839 5836 5833 5829 5826 5821 5818 5815 5812 5809 5807 5803 5800 5797 5794 5792 5791 5788 5786 5785 5784 5784 5783 5782 5781 5782 5782 5781 5781 5779 5781
5868 5866 5864 5862 5859 5855 5852 5850 5846 5844 5840 5837 5833 5829 5826 5822 5818 5814 5811 5807 5803 5800 5796 5792 5788 5786 5783 5781 5779 5777 5775 5775 5774 5773 5772 5771 5770 5771 5772 5772 5772 5774 5772
5866 5863 5860 5858 5854 5851 5848 5845 5841 5837 5834 5830 5827 5822 5818 5814 5810 5806 5801 5796 5792 5789 5784 5781 5778 5775 5773 5770 5768 5765 5763 5761 5761 5760 5759 5758 5758 5758 5759 5761 5761 5760 5762
5862 5859 5854 5852 5849 5846 5842 5839 5835 5832 5828 5824 5820 5815 5810 5806 5801 5796 5792 5787 5782 5779 5774 5771 5768 5765 5762 5759 5757 5754 5752 5749 5748 5747 5745 5744 5744 5744 5744 5746 5746 5747 5749
5858 5854 5850 5846 5843 5841 5837 5833 5830 5825 5821 5816 5812 5807 5802 5797 5793 5788 5783 5778 5773 5769 5764 5761 5758 5755 5751 5749 5746 5743 5741 5738 5737 5735 5733 5731 5730 5730 5731 5731 5732 5733 5735
5852 5850 5846 5841 5839 5836 5832 5827 5823 5819 5814 5810 5805 5799 5794 5790 5784 5779 5774 5769 5763 5759 5755 5751 5747 5743 5739 5736 5734 5731 5728 5726 5724 5722 5720 5718 5717 5716 5716 5717 5718 5719 5721
5849 5844 5840 5837 5834 5830 5826 5822 5817 5812 5807 5802 5796 5791 5785 5779 5774 5768 5764 5760 5753 5748 5743 5739 5735 5730 5726 5723 5720 5717 5714 5712 5709 5707 5705 5703 5701 5700 5701 5702 5703 5704 5706
5842 5839 5835 5833 5829 5825 5820 5816 5810 5805 5800 5794 5788 5781 5775 5770 5765 5760 5753 5749 5742 5736 5731 5726 5722 5717 5713 5709 5705 5702 5699 5696 5694 5691 5689 5687 5685 5683 5684 5685 5685 5687 5689
5836 5834 5831 5827 5823 5819 5814 5808 5802 5796 5790 5784 5778 5771 5766 5761 5755 5748 5742 5736 5729 5723 5717 5712 5708 5703 5698 5693 5690 5686 5683 5680 5677 5674 5671 5669 5667 5666 5666 5668 5667 5668 5671
5829 5827 5824 5821 5817 5811 5806 5799 5793 5787 5781 5774 5767 5761 5755 5749 5743 5736 5729 5722 5715 5709 5704 5698 5693 5687 5682 5677 5673 5668 5665 5661 5658 5655 5652 5650 5648 5647 5647 5649 5649 5650 5653
5824 5821 5817 5813 5810 5803 5797 5792 5785 5779 5771 5764 5758 5752 5745 5738 5731 5725 5717 5709 5703 5696 5689 5682 5676 5669 5664 5658 5653 5649 5645 5641 5638 5636 5633 5631 5630 5628 5628 5630 5632 5631 5634
5821 5816 5811 5806 5802 5796 5790 5784 5777 5769 5763 5756 5750 5742 5735 5728 5721 5712 5705 5697 5690 5682 5674 5666 5659 5652 5645 5639 5634 5629 5625 5621 5618 5616 5614 5612 5611 5611 5611 5612 5615 5616 5617
5815 5809 5803 5800 5795 5788 5782 5776 5769 5762 5755 5746 5738 5730 5723 5715 5706 5698 5689 5680 5671 5663 5655 5647 5640 5633 5627 5620 5615 5611 5607 5604 5601 5600 5597 5595 5595 5595 5595 5596 5599 5601 5602
5809 5804 5798 5792 5786 5780 5774 5767 5760 5753 5744 5734 5726 5718 5709 5699 5690 5679 5669 5660 5652 5644 5637 5630 5624 5617 5610 5604 5597 5592 5590 5586 5583 5581 5579 5577 5578 5579 5579 5580 5583 5586 5587
5804 5798 5791 5785 5779 5773 5766 5759 5750 5741 5730 5721 5712 5703 5693 5683 5672 5661 5652 5643 5636 5628 5620 5613 5606 5599 5592 5585 5579 5573 5570 5567 5564 5563 5561 5559 5559 5560 5561 5563 5565 5570 5572
5796 5789 5783 5777 5771 5765 5756 5747 5737 5726 5718 5709 5698 5687 5677 5666 5656 5646 5638 5629 5620 5612 5604 5595 5587 5579 5572 5565 5557 5550 5546 5544 5541 5540 5540 5539 5538 5540 5542 5544 5547 5553 5555
5786 5781 5774 5768 5762 5753 5744 5735 5726 5716 5705 5694 5683 5672 5661 5650 5640 5631 5622 5612 5603 5594 5586 5577 5567 5559 5551 5543 5535 5528 5522 5520 5517 5516 5517 5517 5518 5519 5521 5526 5528 5533 5538
5780 5774 5767 5759 5751 5742 5734 5725 5714 5703 5692 5681 5670 5658 5648 5638 5629 5619 5609 5598 5588 5576 5566 5556 5546 5537 5530 5524 5518 5512 5505 5502 5500 5498 5498 5498 5499 5500 5502 5506 5510 5515 5520
5774 5768 5760 5751 5742 5732 5722 5712 5701 5691 5681 5670 5659 5648 5638 5627 5616 5605 5593 5582 5570 5558 5547 5539 5531 5524 5516 5511 5505 5500 5493 5489 5486 5484 5483 5483 5483 5484 5485 5488 5493 5498 5503
5768 5761 5752 5743 5734 5724 5714 5703 5692 5681 5669 5658 5646 5635 5624 5613 5602 5590 5578 5566 5554 5544 5535 5527 5519 5513 5505 5499 5494 5490 5486 5481 5475 5472 5471 5470 5470 5471 5472 5474 5477 5482 5488
5762 5754 5745 5736 5726 5716 5705 5693 5681 5669 5657 5645 5634 5623 5612 5600 5588 5575 5563 5552 5542 5533 5525 5516 5509 5502 5496 5489 5483 5478 5474 5471 5468 5463 5458 5457 5458 5458 5460 5462 5465 5469 5474
5755 5747 5738 5729 5718 5708 5696 5684 5672 5660 5650 5639 5627 5613 5599 5586 5573 5561 5551 5541 5532 5524 5516 5507 5499 5492 5485 5479 5472 5466 5461 5457 5454 5456 5450 5444 5444 5446 5448 5450 5453 5456 5461
5750 5741 5732 5721 5710 5699 5687 5674 5663 5652 5640 5627 5614 5600 5587 5573 5561 5551 5542 5533 5525 5516 5507 5498 5490 5482 5474 5467 5460 5454 5448 5443 5438 5436 5439 5436 5431 5432 5434 5438 5441 5444 5449
5744 5735 5725 5713 5702 5690 5677 5666 5655 5644 5631 5617 5602 5588 5576 5564 5554 5543 5535 5526 5517 5508 5498 5489 5480 5472 5464 5456 5449 5442 5436 5430 5426 5421 5418 5419 5419 5416 5419 5423 5427 5432 5437